OSIRIS-3U

Last updated on March 8, 2019, 12:02 a.m. UTC

1 43027U 98067NL  19066.21822070  .27976699  12582-4  67924-3 0  9998
2 43027  51.6122  93.2605 0000010 179.6888 180.8884 16.46418237 73939

Satellite is not in orbit.